Location: ????????
(54.9045°N, 39.1041°E)
Time: 15:12:36
(UTC+00:00)

IDEFIX/ARIANE 42P - Visible Passes

Search period start: 12 July 2024 00:00
Search period end: 22 July 2024 00:00
Orbit: 782 x 800 km, 98.5° (Epoch: 12 July)

Date Brightness Start Highest point End Pass type
(mag) Time Alt. Az. Time Alt. Az. Time Alt. Az.
12 Jul 4.4 22:02:55 10° NE 22:06:52 21° E 22:10:47 10° SE visible
12 Jul 2.6 23:41:46 10° NNE 23:46:59 76° WNW 23:52:08 10° SSW visible
13 Jul 4.8 21:34:51 10° NE 21:37:13 13° E 21:39:34 10° ESE visible
13 Jul 2.8 23:12:32 10° NNE 23:17:45 68° ESE 23:22:46 11° S visible
14 Jul 3.5 22:43:27 10° NNE 22:48:23 42° E 22:53:09 11° SSE visible
15 Jul 4.1 22:14:35 10° NE 22:18:55 26° E 22:23:12 10° SSE visible
15 Jul 2.8 23:53:42 10° NNE 23:58:51 63° WNW 00:03:57 10° SSW visible
16 Jul 4.7 21:46:08 10° NE 21:49:18 16° E 21:52:27 10° ESE visible
16 Jul 2.6 23:24:25 10° NNE 23:29:40 82° ESE 23:34:40 11° SSW visible
17 Jul 3.1 22:55:17 10° NNE 23:00:21 51° E 23:05:02 12° S visible
18 Jul 3.9 22:26:18 10° NNE 22:30:55 31° E 22:35:25 10° SSE visible
19 Jul 3.0 00:05:40 10° N 00:10:41 52° WNW 00:15:42 10° SW visible
19 Jul 4.5 21:57:38 10° NE 22:01:22 20° E 22:05:05 10° SE visible
19 Jul 2.6 23:36:20 10° NNE 23:41:33 83° WNW 23:46:32 11° SSW visible
20 Jul 4.9 21:29:50 10° ENE 21:31:40 12° E 21:33:30 10° ESE visible
20 Jul 2.9 23:07:07 10° NNE 23:12:17 62° ESE 23:16:55 13° S visible
21 Jul 3.6 22:38:03 10° NNE 22:42:54 38° E 22:47:17 12° SSE visible
